SUR4101 MPTO-MGGT

Flight info

Callsign SUR4101
Flight time N/A
Altitude 40000
Route AROVI DCT ANSON DCT MUTAL DCT AUR
Aircraft B736/M-SDE2E3FGHIRWXY/LB1

Departure

Time 2026-05-06 22:35
Airport Tocumen International Airport (MPTO)

Arrival

Time N/A
Airport La Aurora International Airport (MGGT)
Time Latitude Longitude Altitude Speed Heading
2026-05-06 21:40 9.07062 -79.38597 62 ft 0 kts 120°
2026-05-06 22:17 9.07067 -79.38605 62 ft 2 kts 121°
2026-05-06 22:17 9.07074 -79.38618 62 ft 2 kts 120°
2026-05-06 22:18 9.07080 -79.38628 62 ft 0 kts 120°
2026-05-06 22:18 9.07085 -79.38641 62 ft 2 kts 92°
2026-05-06 22:18 9.07083 -79.38655 62 ft 2 kts 64°
2026-05-06 22:18 9.07074 -79.38667 62 ft 1 kts 36°
2026-05-06 22:19 9.07068 -79.38670 62 ft 1 kts 25°
2026-05-06 22:19 9.07065 -79.38672 62 ft 0 kts 27°
2026-05-06 22:23 9.07069 -79.38670 62 ft 1 kts 27°
2026-05-06 22:23 9.07072 -79.38668 62 ft 1 kts 28°
2026-05-06 22:23 9.07084 -79.38662 62 ft 2 kts 28°
2026-05-06 22:23 9.07102 -79.38652 62 ft 3 kts 28°
2026-05-06 22:24 9.07123 -79.38641 62 ft 3 kts 28°
2026-05-06 22:24 9.07146 -79.38628 62 ft 3 kts 30°
2026-05-06 22:24 9.07174 -79.38611 62 ft 4 kts 31°
2026-05-06 22:24 9.07214 -79.38585 62 ft 9 kts 46°
2026-05-06 22:25 9.07214 -79.38515 62 ft 10 kts 113°
2026-05-06 22:25 9.07179 -79.38447 62 ft 10 kts 118°
2026-05-06 22:25 9.07128 -79.38393 61 ft 12 kts 170°
2026-05-06 22:25 9.07042 -79.38425 60 ft 13 kts 210°
2026-05-06 22:26 9.06965 -79.38468 61 ft 12 kts 200°
2026-05-06 22:26 9.06890 -79.38445 60 ft 12 kts 132°
2026-05-06 22:26 9.06867 -79.38419 59 ft 3 kts 132°
2026-05-06 22:26 9.06797 -79.38403 58 ft 17 kts 201°
2026-05-06 22:27 9.06687 -79.38443 58 ft 16 kts 179°
2026-05-06 22:27 9.06636 -79.38412 56 ft 0 kts 132°
2026-05-06 22:27 9.06601 -79.38393 55 ft 11 kts 166°
2026-05-06 22:27 9.06505 -79.38383 53 ft 14 kts 179°
2026-05-06 22:28 9.06401 -79.38381 51 ft 15 kts 185°
2026-05-06 22:28 9.06282 -79.38405 48 ft 19 kts 207°
2026-05-06 22:28 9.06156 -79.38471 46 ft 20 kts 206°
2026-05-06 22:28 9.06030 -79.38539 45 ft 20 kts 209°
2026-05-06 22:29 9.05904 -79.38610 43 ft 20 kts 209°
2026-05-06 22:29 9.05779 -79.38681 41 ft 21 kts 210°
2026-05-06 22:29 9.05648 -79.38757 39 ft 16 kts 210°
2026-05-06 22:29 9.05556 -79.38810 37 ft 12 kts 210°
2026-05-06 22:30 9.05475 -79.38856 35 ft 13 kts 211°
2026-05-06 22:30 9.05431 -79.38931 35 ft 12 kts 285°
2026-05-06 22:30 9.05467 -79.39014 35 ft 12 kts 275°
2026-05-06 22:30 9.05411 -79.39082 34 ft 13 kts 213°
2026-05-06 22:31 9.05325 -79.39132 32 ft 14 kts 210°
2026-05-06 22:31 9.05241 -79.39181 32 ft 13 kts 210°
2026-05-06 22:31 9.05158 -79.39228 32 ft 13 kts 210°
2026-05-06 22:31 9.05079 -79.39274 32 ft 12 kts 210°
2026-05-06 22:32 9.05016 -79.39311 32 ft 12 kts 210°
2026-05-06 22:32 9.05003 -79.39317 32 ft 12 kts 210°
2026-05-06 22:32 9.04931 -79.39359 32 ft 11 kts 210°
2026-05-06 22:33 9.04866 -79.39381 32 ft 0 kts 176°
2026-05-06 22:33 9.04859 -79.39381 32 ft 1 kts 174°
2026-05-06 22:33 9.04845 -79.39374 32 ft 2 kts 148°
2026-05-06 22:33 9.04829 -79.39359 32 ft 3 kts 129°
2026-05-06 22:34 9.04808 -79.39326 32 ft 6 kts 120°
2026-05-06 22:34 9.04789 -79.39277 31 ft 9 kts 95°
2026-05-06 22:34 9.04823 -79.39226 30 ft 5 kts 31°
2026-05-06 22:34 9.04908 -79.39175 30 ft 42 kts 30°
2026-05-06 22:35 9.05394 -79.38898 36 ft 115 kts 28°
2026-05-06 22:35 9.06250 -79.38433 244 ft 152 kts 28°
2026-05-06 22:35 9.07147 -79.37951 1146 ft 147 kts 27°
2026-05-06 22:35 9.08067 -79.37451 1772 ft 164 kts 27°
2026-05-06 22:36 9.09106 -79.36888 2354 ft 172 kts 28°
2026-05-06 22:36 9.10171 -79.36273 2906 ft 184 kts 30°
2026-05-06 22:36 9.11329 -79.35606 3428 ft 197 kts 29°
2026-05-06 22:36 9.12563 -79.34907 3906 ft 213 kts 29°
2026-05-06 22:37 9.13906 -79.34147 4409 ft 228 kts 29°
2026-05-06 22:37 9.15346 -79.33333 4889 ft 245 kts 30°
2026-05-06 22:37 9.16883 -79.32462 5370 ft 260 kts 30°
2026-05-06 22:37 9.18497 -79.31548 5992 ft 269 kts 30°
2026-05-06 22:38 9.20124 -79.30625 6811 ft 270 kts 30°
2026-05-06 22:38 9.21828 -79.29781 7508 ft 277 kts 19°
2026-05-06 22:38 9.23746 -79.29624 8215 ft 286 kts 353°
2026-05-06 22:38 9.25642 -79.30305 8900 ft 297 kts 332°
2026-05-06 22:39 9.27301 -79.31613 9600 ft 305 kts 317°
2026-05-06 22:39 9.28599 -79.33333 10321 ft 312 kts 298°
2026-05-06 22:39 9.29141 -79.35451 11057 ft 318 kts 272°
2026-05-06 22:39 9.29007 -79.37702 11777 ft 323 kts 263°
2026-05-06 22:40 9.28735 -79.39950 12490 ft 327 kts 262°
2026-05-06 22:40 9.28449 -79.42258 13220 ft 331 kts 263°
2026-05-06 22:40 9.28182 -79.44602 13963 ft 336 kts 263°
2026-05-06 22:40 9.27934 -79.46947 14704 ft 340 kts 264°
2026-05-06 22:41 9.27448 -79.51754 16186 ft 347 kts 265°
2026-05-06 22:41 9.27327 -79.54200 16811 ft 353 kts 271°
2026-05-06 22:41 9.27585 -79.56702 17361 ft 362 kts 282°
2026-05-06 22:42 9.28181 -79.59217 17730 ft 375 kts 287°
2026-05-06 22:42 9.28942 -79.61801 18092 ft 389 kts 289°
2026-05-06 22:42 9.29760 -79.64428 18604 ft 397 kts 290°
2026-05-06 22:42 9.30587 -79.67102 19288 ft 398 kts 289°
2026-05-06 22:43 9.31391 -79.69760 19901 ft 402 kts 289°
2026-05-06 22:43 9.32197 -79.72482 20501 ft 406 kts 289°
2026-05-06 22:43 9.32999 -79.75227 21134 ft 409 kts 289°
2026-05-06 22:43 9.33804 -79.78001 21694 ft 413 kts 289°
2026-05-06 22:44 9.34605 -79.80776 22284 ft 416 kts 289°
2026-05-06 22:44 9.35418 -79.83597 22912 ft 417 kts 289°
2026-05-06 22:44 9.36230 -79.86421 23510 ft 420 kts 289°
2026-05-06 22:44 9.37002 -79.89278 24092 ft 423 kts 287°
2026-05-06 22:45 9.37705 -79.92165 24699 ft 425 kts 286°
2026-05-06 22:45 9.38376 -79.95076 25268 ft 427 kts 285°
2026-05-06 22:45 9.39040 -79.98003 25840 ft 429 kts 285°
2026-05-06 22:45 9.39710 -80.00956 26387 ft 431 kts 285°
2026-05-06 22:46 9.40389 -80.03924 26901 ft 434 kts 285°
2026-05-06 22:46 9.41073 -80.06890 27416 ft 436 kts 285°
2026-05-06 22:46 9.41766 -80.09881 27909 ft 438 kts 285°
2026-05-06 22:46 9.42465 -80.12880 28433 ft 440 kts 285°
2026-05-06 22:47 9.43169 -80.15888 28904 ft 442 kts 285°
2026-05-06 22:47 9.43880 -80.18922 29379 ft 444 kts 285°
2026-05-06 22:47 9.44588 -80.21938 29833 ft 446 kts 285°
2026-05-06 22:47 9.45306 -80.25001 30313 ft 448 kts 285°
2026-05-06 22:48 9.46022 -80.28056 30762 ft 449 kts 285°
2026-05-06 22:48 9.46746 -80.31143 31230 ft 451 kts 285°
2026-05-06 22:48 9.47474 -80.34245 31654 ft 453 kts 285°
2026-05-06 22:48 9.48192 -80.37314 32071 ft 454 kts 285°
2026-05-06 22:49 9.48919 -80.40417 32642 ft 452 kts 284°
2026-05-06 22:49 9.49639 -80.43498 33392 ft 447 kts 284°
2026-05-06 22:49 9.50353 -80.46553 34015 ft 444 kts 284°
2026-05-06 22:49 9.51061 -80.49583 34550 ft 444 kts 284°
2026-05-06 22:50 9.51768 -80.52610 35120 ft 442 kts 284°
2026-05-06 22:50 9.52473 -80.55630 35642 ft 441 kts 284°
2026-05-06 22:50 9.53170 -80.58612 36069 ft 441 kts 284°
2026-05-06 22:50 9.53876 -80.61636 36540 ft 440 kts 283°
2026-05-06 22:51 9.54578 -80.64644 37019 ft 439 kts 283°
2026-05-06 22:51 9.55284 -80.67670 37452 ft 439 kts 283°
2026-05-06 22:51 9.55979 -80.70651 37853 ft 438 kts 283°
2026-05-06 22:51 9.56682 -80.73666 38265 ft 438 kts 283°
2026-05-06 22:52 9.57378 -80.76655 38689 ft 437 kts 283°
2026-05-06 22:52 9.58086 -80.79663 39110 ft 436 kts 283°
2026-05-06 22:52 9.58884 -80.82638 39505 ft 436 kts 287°
2026-05-06 22:52 9.59928 -80.85515 39853 ft 436 kts 292°
2026-05-06 22:53 9.61296 -80.88297 39885 ft 439 kts 298°
2026-05-06 22:53 9.64573 -80.93608 39885 ft 437 kts 302°
2026-05-06 22:54 9.67970 -80.98756 39885 ft 436 kts 303°
2026-05-06 22:54 9.71336 -81.03929 39884 ft 436 kts 302°
2026-05-06 22:55 9.74631 -81.09091 39884 ft 438 kts 302°
2026-05-06 22:55 9.77919 -81.14304 39884 ft 438 kts 302°
2026-05-06 22:56 9.81181 -81.19500 39884 ft 436 kts 301°
2026-05-06 22:56 9.84439 -81.24706 39884 ft 436 kts 301°
2026-05-06 22:57 9.87683 -81.29894 39884 ft 437 kts 302°
2026-05-06 22:57 9.90914 -81.35062 39885 ft 437 kts 302°
2026-05-06 22:58 9.94168 -81.40270 39889 ft 438 kts 301°
2026-05-06 22:58 9.97437 -81.45505 39891 ft 439 kts 301°
2026-05-06 22:59 10.00684 -81.50707 39883 ft 437 kts 302°
2026-05-06 22:59 10.03949 -81.55940 39885 ft 437 kts 302°
2026-05-06 23:00 10.07183 -81.61126 39893 ft 437 kts 302°
2026-05-06 23:00 10.10426 -81.66327 39899 ft 436 kts 301°
2026-05-06 23:01 10.13663 -81.71524 39899 ft 437 kts 301°
2026-05-06 23:01 10.16915 -81.76747 39900 ft 439 kts 301°
2026-05-06 23:02 10.20170 -81.81975 39900 ft 438 kts 301°
2026-05-06 23:02 10.23443 -81.87235 39903 ft 440 kts 301°
2026-05-06 23:03 10.26688 -81.92452 39903 ft 437 kts 301°
2026-05-06 23:03 10.29942 -81.97688 39900 ft 438 kts 302°
2026-05-06 23:04 10.33195 -82.02922 39892 ft 438 kts 302°
2026-05-06 23:04 10.36436 -82.08141 39884 ft 436 kts 301°
2026-05-06 23:05 10.39670 -82.13352 39887 ft 439 kts 302°
2026-05-06 23:05 10.42921 -82.18591 39885 ft 438 kts 302°
2026-05-06 23:06 10.46160 -82.23812 39889 ft 438 kts 302°
2026-05-06 23:06 10.49415 -82.29063 39890 ft 439 kts 302°
2026-05-06 23:07 10.52647 -82.34279 39891 ft 438 kts 302°
2026-05-06 23:07 10.55888 -82.39511 39890 ft 437 kts 302°
2026-05-06 23:08 10.59126 -82.44742 39888 ft 438 kts 302°
2026-05-06 23:08 10.62371 -82.49987 39889 ft 438 kts 302°
2026-05-06 23:09 10.65628 -82.55253 39888 ft 438 kts 301°
2026-05-06 23:09 10.68858 -82.60477 39888 ft 439 kts 302°
2026-05-06 23:10 10.72054 -82.65750 39888 ft 440 kts 299°
2026-05-06 23:10 10.74947 -82.71214 39888 ft 439 kts 297°
2026-05-06 23:11 10.77736 -82.76731 39887 ft 439 kts 297°
2026-05-06 23:11 10.80563 -82.82274 39887 ft 438 kts 297°
2026-05-06 23:12 10.83375 -82.87724 39886 ft 438 kts 297°
2026-05-06 23:12 10.86238 -82.93241 39890 ft 438 kts 297°
2026-05-06 23:13 10.89086 -82.98716 39899 ft 440 kts 297°
2026-05-06 23:13 10.91944 -83.04211 39905 ft 441 kts 297°
2026-05-06 23:14 10.94799 -83.09699 39907 ft 439 kts 297°
2026-05-06 23:14 10.97658 -83.15200 39908 ft 439 kts 297°
2026-05-06 23:15 11.00504 -83.20676 39908 ft 438 kts 297°
2026-05-06 23:15 11.03347 -83.26154 39910 ft 437 kts 297°
2026-05-06 23:16 11.06175 -83.31604 39913 ft 438 kts 297°
2026-05-06 23:16 11.09031 -83.37111 39911 ft 438 kts 297°
2026-05-06 23:17 11.11866 -83.42581 39912 ft 439 kts 297°
2026-05-06 23:17 11.14713 -83.48080 39910 ft 440 kts 297°
2026-05-06 23:18 11.17565 -83.53590 39907 ft 437 kts 297°
2026-05-06 23:18 11.20390 -83.59049 39905 ft 437 kts 297°
2026-05-06 23:19 11.23223 -83.64528 39905 ft 438 kts 297°
2026-05-06 23:19 11.26052 -83.70000 39905 ft 438 kts 297°
2026-05-06 23:20 11.28885 -83.75481 39905 ft 439 kts 297°
2026-05-06 23:20 11.31724 -83.80981 39907 ft 438 kts 297°
2026-05-06 23:21 11.34549 -83.86455 39909 ft 439 kts 297°
2026-05-06 23:21 11.37386 -83.91957 39912 ft 439 kts 297°
2026-05-06 23:22 11.40225 -83.97463 39915 ft 437 kts 297°
2026-05-06 23:22 11.43051 -84.02949 39916 ft 437 kts 297°
2026-05-06 23:23 11.45871 -84.08427 39918 ft 438 kts 297°
2026-05-06 23:23 11.48702 -84.13927 39918 ft 439 kts 297°
2026-05-06 23:24 11.51522 -84.19411 39918 ft 438 kts 297°
2026-05-06 23:24 11.54351 -84.24913 39920 ft 438 kts 297°
2026-05-06 23:25 11.57183 -84.30425 39924 ft 437 kts 297°
2026-05-06 23:25 11.60001 -84.35915 39925 ft 437 kts 297°
2026-05-06 23:26 11.62821 -84.41412 39928 ft 437 kts 297°
2026-05-06 23:26 11.65620 -84.46868 39930 ft 437 kts 297°
2026-05-06 23:27 11.68435 -84.52361 39930 ft 438 kts 297°
2026-05-06 23:27 11.71262 -84.57880 39933 ft 437 kts 297°
2026-05-06 23:28 11.74082 -84.63388 39933 ft 438 kts 297°
2026-05-06 23:28 11.76895 -84.68883 39931 ft 437 kts 297°
2026-05-06 23:29 11.79715 -84.74399 39929 ft 437 kts 297°
2026-05-06 23:29 11.82517 -84.79881 39922 ft 437 kts 297°
2026-05-06 23:30 11.85340 -84.85409 39922 ft 438 kts 297°
2026-05-06 23:30 11.88160 -84.90931 39921 ft 437 kts 297°
2026-05-06 23:31 11.90957 -84.96414 39929 ft 438 kts 297°
2026-05-06 23:31 11.93772 -85.01936 39934 ft 436 kts 297°
2026-05-06 23:32 11.96565 -85.07418 39932 ft 436 kts 297°
2026-05-06 23:32 11.99363 -85.12910 39932 ft 435 kts 297°
2026-05-06 23:33 12.02163 -85.18411 39936 ft 437 kts 297°
2026-05-06 23:33 12.04966 -85.23921 39935 ft 437 kts 297°
2026-05-06 23:34 12.07765 -85.29424 39941 ft 436 kts 297°
2026-05-06 23:34 12.10554 -85.34914 39936 ft 436 kts 297°
2026-05-06 23:35 12.13340 -85.40403 39930 ft 436 kts 297°
2026-05-06 23:35 12.16108 -85.45860 39934 ft 435 kts 297°
2026-05-06 23:36 12.18899 -85.51363 39933 ft 436 kts 297°
2026-05-06 23:36 12.21676 -85.56840 39931 ft 435 kts 297°
2026-05-06 23:37 12.24457 -85.62328 39922 ft 436 kts 297°
2026-05-06 23:37 12.27246 -85.67838 39921 ft 435 kts 297°
2026-05-06 23:38 12.30021 -85.73320 39922 ft 435 kts 297°
2026-05-06 23:38 12.32782 -85.78781 39933 ft 435 kts 297°
2026-05-06 23:39 12.35562 -85.84281 39941 ft 434 kts 297°
2026-05-06 23:39 12.38319 -85.89739 39952 ft 434 kts 297°
2026-05-06 23:40 12.41101 -85.95250 39963 ft 435 kts 297°
2026-05-06 23:40 12.43863 -86.00725 39973 ft 435 kts 297°
2026-05-06 23:41 12.46624 -86.06200 39960 ft 434 kts 296°
2026-05-06 23:41 12.49394 -86.11697 39956 ft 435 kts 296°
2026-05-06 23:42 12.52165 -86.17203 39942 ft 434 kts 297°
2026-05-06 23:42 12.54919 -86.22675 39911 ft 434 kts 296°
2026-05-06 23:43 12.57686 -86.28176 39911 ft 434 kts 296°
2026-05-06 23:43 12.60448 -86.33672 39906 ft 436 kts 296°
2026-05-06 23:44 12.63217 -86.39188 39909 ft 436 kts 296°
2026-05-06 23:44 12.65983 -86.44701 39901 ft 437 kts 296°
2026-05-06 23:45 12.68754 -86.50221 39904 ft 435 kts 296°
2026-05-06 23:45 12.71497 -86.55694 39897 ft 435 kts 296°
2026-05-06 23:46 12.74270 -86.61227 39883 ft 435 kts 296°
2026-05-06 23:46 12.77023 -86.66728 39879 ft 435 kts 296°
2026-05-06 23:47 12.79769 -86.72216 39859 ft 436 kts 296°
2026-05-06 23:47 12.82527 -86.77734 39860 ft 437 kts 296°
2026-05-06 23:48 12.85301 -86.83285 39859 ft 437 kts 296°
2026-05-06 23:48 12.87779 -86.88245 39851 ft 437 kts 296°
2026-05-06 23:49 12.89435 -86.91559 39860 ft 435 kts 296°
2026-05-06 23:49 12.92191 -86.97080 39847 ft 436 kts 296°
2026-05-06 23:50 12.94954 -87.02619 39843 ft 437 kts 296°
2026-05-06 23:50 12.99088 -87.10917 39839 ft 437 kts 296°
2026-05-06 23:51 13.01850 -87.16465 39840 ft 437 kts 296°
2026-05-06 23:51 13.04614 -87.22019 39834 ft 438 kts 296°
2026-05-06 23:52 13.07372 -87.27565 39834 ft 438 kts 296°
2026-05-06 23:52 13.10151 -87.33156 39845 ft 438 kts 296°
2026-05-06 23:53 13.12897 -87.38685 39842 ft 438 kts 296°
2026-05-06 23:53 13.15318 -87.43564 39846 ft 437 kts 296°
2026-05-06 23:54 13.17749 -87.48468 39851 ft 436 kts 296°
2026-05-06 23:54 13.20497 -87.54015 39852 ft 436 kts 296°
2026-05-06 23:55 13.23248 -87.59568 39852 ft 437 kts 296°
2026-05-06 23:55 13.25988 -87.65104 39855 ft 438 kts 296°
2026-05-06 23:56 13.28748 -87.70679 39867 ft 437 kts 296°
2026-05-06 23:56 13.31502 -87.76252 39868 ft 437 kts 296°
2026-05-06 23:57 13.34246 -87.81807 39885 ft 436 kts 296°
2026-05-06 23:57 13.36978 -87.87341 39893 ft 435 kts 296°
2026-05-06 23:58 13.39722 -87.92904 39903 ft 436 kts 296°
2026-05-06 23:58 13.42466 -87.98468 39911 ft 436 kts 296°
2026-05-06 23:59 13.45200 -88.04018 39916 ft 436 kts 296°
2026-05-06 23:59 13.47948 -88.09598 39921 ft 436 kts 296°
2026-05-07 00:00 13.50669 -88.15131 39915 ft 436 kts 296°
2026-05-07 00:00 13.53419 -88.20723 39944 ft 436 kts 296°
2026-05-07 00:01 13.56143 -88.26266 39955 ft 434 kts 296°
2026-05-07 00:01 13.58855 -88.31790 39988 ft 434 kts 296°
2026-05-07 00:02 13.61578 -88.37342 40006 ft 434 kts 296°
2026-05-07 00:02 13.64173 -88.42914 40003 ft 433 kts 291°
2026-05-07 00:03 13.66129 -88.48751 39995 ft 432 kts 286°
2026-05-07 00:03 13.67826 -88.54699 39976 ft 433 kts 285°
2026-05-07 00:04 13.69495 -88.60667 39962 ft 433 kts 285°
2026-05-07 00:04 13.71174 -88.66616 39946 ft 433 kts 285°
2026-05-07 00:05 13.72859 -88.72533 39952 ft 433 kts 285°
2026-05-07 00:05 13.74564 -88.78497 39963 ft 434 kts 285°
2026-05-07 00:06 13.76257 -88.84414 39969 ft 434 kts 285°
2026-05-07 00:06 13.77953 -88.90348 39969 ft 434 kts 285°
2026-05-07 00:07 13.79659 -88.96316 39969 ft 435 kts 285°
2026-05-07 00:07 13.81352 -89.02245 39978 ft 434 kts 285°
2026-05-07 00:08 13.83046 -89.08186 39988 ft 434 kts 285°
2026-05-07 00:08 13.83893 -89.11157 39844 ft 431 kts 285°
2026-05-07 00:08 13.84736 -89.14119 38816 ft 437 kts 285°
2026-05-07 00:09 13.85590 -89.17122 37791 ft 441 kts 285°
2026-05-07 00:09 13.86439 -89.20107 37390 ft 433 kts 286°
2026-05-07 00:09 13.87284 -89.23078 36957 ft 427 kts 286°
2026-05-07 00:09 13.88107 -89.25974 36401 ft 423 kts 286°
2026-05-07 00:10 13.88938 -89.28896 35803 ft 420 kts 286°
2026-05-07 00:10 13.89751 -89.31759 35150 ft 418 kts 286°
2026-05-07 00:10 13.90558 -89.34605 34512 ft 417 kts 286°
2026-05-07 00:10 13.91376 -89.37493 33805 ft 418 kts 287°
2026-05-07 00:11 13.92183 -89.40340 33089 ft 418 kts 287°
2026-05-07 00:11 13.92994 -89.43201 32515 ft 416 kts 287°
2026-05-07 00:11 13.93807 -89.46073 32073 ft 428 kts 287°
2026-05-07 00:11 13.94663 -89.49088 31524 ft 451 kts 287°
2026-05-07 00:12 13.95541 -89.52183 30923 ft 456 kts 287°
2026-05-07 00:12 13.96424 -89.55302 30355 ft 452 kts 287°
2026-05-07 00:12 13.97302 -89.58408 29776 ft 448 kts 287°
2026-05-07 00:12 13.98173 -89.61490 29181 ft 446 kts 287°
2026-05-07 00:13 13.99021 -89.64497 28607 ft 443 kts 287°
2026-05-07 00:13 13.99879 -89.67539 28023 ft 440 kts 286°
2026-05-07 00:13 14.00731 -89.70562 27444 ft 437 kts 286°
2026-05-07 00:13 14.01572 -89.73547 26863 ft 435 kts 286°
2026-05-07 00:14 14.02409 -89.76521 26273 ft 433 kts 287°
2026-05-07 00:14 14.03243 -89.79488 25695 ft 430 kts 287°
2026-05-07 00:14 14.04066 -89.82395 25149 ft 427 kts 287°
2026-05-07 00:14 14.04973 -89.85298 24608 ft 424 kts 290°
2026-05-07 00:15 14.06115 -89.88085 24044 ft 420 kts 298°
2026-05-07 00:15 14.07518 -89.90717 23475 ft 417 kts 302°
2026-05-07 00:15 14.08596 -89.92523 23060 ft 416 kts 304°
2026-05-07 00:15 14.10139 -89.94985 22489 ft 414 kts 305°
2026-05-07 00:16 14.11717 -89.97460 21929 ft 411 kts 306°
2026-05-07 00:16 14.13040 -89.99535 21457 ft 410 kts 305°
2026-05-07 00:16 14.14423 -90.01720 20987 ft 407 kts 305°
2026-05-07 00:16 14.15953 -90.04157 20455 ft 404 kts 305°
2026-05-07 00:17 14.17462 -90.06577 19884 ft 402 kts 304°
2026-05-07 00:17 14.18969 -90.09010 19311 ft 400 kts 304°
2026-05-07 00:17 14.20446 -90.11404 18762 ft 398 kts 304°
2026-05-07 00:17 14.21911 -90.13821 18280 ft 393 kts 303°
2026-05-07 00:18 14.23289 -90.16213 17683 ft 392 kts 302°
2026-05-07 00:18 14.24654 -90.18659 17100 ft 391 kts 302°
2026-05-07 00:18 14.26001 -90.21097 16564 ft 388 kts 301°
2026-05-07 00:18 14.27039 -90.22972 16139 ft 385 kts 302°
2026-05-07 00:19 14.28370 -90.25368 15597 ft 382 kts 302°
2026-05-07 00:19 14.29669 -90.27694 15070 ft 371 kts 302°
2026-05-07 00:19 14.30947 -90.29977 14549 ft 360 kts 302°
2026-05-07 00:19 14.32233 -90.32152 14108 ft 349 kts 305°
2026-05-07 00:20 14.33691 -90.34100 13649 ft 344 kts 315°
2026-05-07 00:20 14.35491 -90.35713 13150 ft 339 kts 327°
2026-05-07 00:20 14.37480 -90.36962 12698 ft 335 kts 334°
2026-05-07 00:20 14.39568 -90.37980 12237 ft 331 kts 340°
2026-05-07 00:21 14.41767 -90.38691 11716 ft 328 kts 351°
2026-05-07 00:21 14.44010 -90.38971 11237 ft 324 kts
2026-05-07 00:21 14.46256 -90.38947 10782 ft 320 kts
2026-05-07 00:21 14.48483 -90.38812 10395 ft 315 kts
2026-05-07 00:22 14.50621 -90.38651 10228 ft 303 kts
2026-05-07 00:22 14.52698 -90.38490 10071 ft 291 kts
2026-05-07 00:22 14.54703 -90.38336 9710 ft 288 kts
2026-05-07 00:22 14.56689 -90.38189 9328 ft 285 kts
2026-05-07 00:23 14.58673 -90.38045 9135 ft 275 kts
2026-05-07 00:23 14.60536 -90.37913 9052 ft 262 kts
2026-05-07 00:23 14.62334 -90.37785 8974 ft 250 kts
2026-05-07 00:23 14.64043 -90.37663 8895 ft 244 kts
2026-05-07 00:24 14.65728 -90.37540 8813 ft 238 kts
2026-05-07 00:24 14.67368 -90.37424 8703 ft 230 kts
2026-05-07 00:24 14.68936 -90.37460 8604 ft 222 kts 352°
2026-05-07 00:24 14.70379 -90.37973 8548 ft 219 kts 332°
2026-05-07 00:25 14.71636 -90.38895 8483 ft 220 kts 320°
2026-05-07 00:25 14.72655 -90.40028 8422 ft 211 kts 304°
2026-05-07 00:25 14.73279 -90.41360 8359 ft 200 kts 288°
2026-05-07 00:25 14.73596 -90.42759 8302 ft 199 kts 277°
2026-05-07 00:26 14.73609 -90.44160 8289 ft 193 kts 261°
2026-05-07 00:26 14.73281 -90.45454 8271 ft 178 kts 248°
2026-05-07 00:26 14.72763 -90.46597 8120 ft 172 kts 237°
2026-05-07 00:26 14.72031 -90.47570 7857 ft 173 kts 223°
2026-05-07 00:27 14.71110 -90.48377 7543 ft 175 kts 213°
2026-05-07 00:27 14.70046 -90.49001 7230 ft 176 kts 200°
2026-05-07 00:27 14.68900 -90.49391 6980 ft 173 kts 194°
2026-05-07 00:27 14.67739 -90.49741 6714 ft 172 kts 195°
2026-05-07 00:28 14.66593 -90.50112 6465 ft 171 kts 196°
2026-05-07 00:28 14.65464 -90.50481 6249 ft 165 kts 195°
2026-05-07 00:28 14.64446 -90.50757 6298 ft 140 kts 190°
2026-05-07 00:28 14.63516 -90.50959 6190 ft 139 kts 194°
2026-05-07 00:29 14.62576 -90.51261 5990 ft 140 kts 194°
2026-05-07 00:29 14.61636 -90.51609 5686 ft 147 kts 197°
2026-05-07 00:30 14.58687 -90.52612 4913 ft 142 kts 193°
2026-05-07 00:30 14.57744 -90.52930 4891 ft 138 kts 197°
2026-05-07 00:30 14.56953 -90.53170 4880 ft 92 kts 192°